Tracking 19149 objects as of 22-Apr-2018
HD Live streaming from Space Station
objects crossing your sky now

FENGYUN 1C DEB

Track FENGYUN 1C DEB now!
10-day predictions


NORAD ID: 30916
Int'l Code: 1999-025AZE
Perigee: 840.7 km
Apogee: 955.4 km
Inclination: 99.3 °
Period: 102.8 minutes
Semi major axis: 7269 km
RCS: 0.0136 m2 (small)
Launch date: May 10, 1999
Source: People's Republic of China (PRC)
Launch site: Taiyaun Space Center, China (TSC)

Note: This is SATELLITE DEBRIS
aabbcc
Your satellite tracking list
Your tracking list is empty




NASA's NSSDC Master Catalog

Two Line Element Set (TLE):
1 30916U 99025AZE 18111.57848008 +.00000230 +00000-0 +17987-3 0  9996
2 30916 099.2626 118.9328 0078859 058.3957 070.3363 14.00831306566860
Source of the keplerian elements: AFSPC